,,,PA_Meas_PMT16A,,PR_Meas_QMR101_102,,RH_Meas_QMH101,,SR_Meas_QMS101,,TA_Meas_QMH101,,GenWind,,GenWind,
date,time,status,PA,status,PR,status,RH,status,SR,status,TA,status,DirAvg,status,SpdAvg,
2012-08-30, 00:00:05,VALID,1003.31,VALID,0,VALID,95.5305,VALID,0,VALID,22.6264,VALID,188,VALID,0.483203,
2012-08-30, 00:01:05,VALID,1003.3,VALID,0,VALID,95.5686,VALID,0.104696,VALID,22.646,VALID,188,VALID,0.707422,
2012-08-30, 00:02:05,VALID,1003.27,VALID,0,VALID,95.561,VALID,0,VALID,22.6477,VALID,188,VALID,0.842578,
2012-08-30, 00:03:05,VALID,1003.26,VALID,0,VALID,95.5762,VALID,0,VALID,22.6672,VALID,188,VALID,0.785156,
2012-08-30, 00:04:05,VALID,1003.18,VALID,0,VALID,95.5991,VALID,0.104696,VALID,22.6264,VALID,188,VALID,0.75625,
2012-08-30, 00:05:05,VALID,1003.2,VALID,0,VALID,95.5991,VALID,0,VALID,22.6672,VALID,188,VALID,0.759766,
2012-08-30, 00:06:05,VALID,1003.16,VALID,0,VALID,95.6144,VALID,0.104696,VALID,22.6264,VALID,188,VALID,0.842188,
2012-08-30, 00:07:05,VALID,1003.14,VALID,0,VALID,95.6525,VALID,0.104696,VALID,22.6264,VALID,188,VALID,0.683984,
2012-08-30, 00:08:05,VALID,1003.1,VALID,0,VALID,95.6754,VALID,0.104696,VALID,22.6477,VALID,188,VALID,0.786719,
2012-08-30, 00:09:05,VALID,1003.09,VALID,0,VALID,95.6754,VALID,0.104696,VALID,22.646,VALID,188,VALID,0.785937,
2012-08-30, 00:10:05,VALID,1003.06,VALID,0,VALID,95.7212,VALID,0,VALID,22.6672,VALID,149,VALID,1.09922,
2012-08-30, 00:11:05,VALID,1003.07,VALID,0,VALID,95.7365,VALID,0.104696,VALID,22.646,VALID,149,VALID,0.928125,
2012-08-30, 00:12:05,VALID,1003.07,VALID,0,VALID,95.7822,VALID,0.104696,VALID,22.6672,VALID,149,VALID,0.753125,
2012-08-30, 00:13:05,VALID,1003.05,VALID,0,VALID,95.767,VALID,0,VALID,22.6672,VALID,149,VALID,0.692969,
2012-08-30, 00:14:05,VALID,1003.03,VALID,0,VALID,95.7975,VALID,0,VALID,22.646,VALID,149,VALID,0.485156,
2012-08-30, 00:15:05,VALID,1003.05,VALID,0,VALID,95.8128,VALID,0.104696,VALID,22.646,VALID,149,VALID,0.223828,
2012-08-30, 00:16:05,VALID,1003.03,VALID,0,VALID,95.8051,VALID,0,VALID,22.6264,VALID,149,VALID,0.00585938,
2012-08-30, 00:17:05,VALID,1003.02,VALID,0,VALID,95.8128,VALID,0,VALID,22.6672,VALID,149,VALID,0.282422,
2012-08-30, 00:18:05,VALID,1003.04,VALID,0,VALID,95.8509,VALID,0,VALID,22.646,VALID,149,VALID,0.761328,
2012-08-30, 00:19:05,VALID,1002.99,VALID,0,VALID,95.8433,VALID,0,VALID,22.646,VALID,149,VALID,0.566406,
2012-08-30, 00:20:05,VALID,1002.92,VALID,0,VALID,95.8585,VALID,0,VALID,22.6264,VALID,149,VALID,0.560938,
2012-08-30, 00:21:05,VALID,1002.91,VALID,0,VALID,95.8662,VALID,0,VALID,22.6477,VALID,149,VALID,0.400391,
2012-08-30, 00:22:05,VALID,1002.91,VALID,0,VALID,95.8814,VALID,0,VALID,22.6282,VALID,149,VALID,0.397656,
2012-08-30, 00:23:05,VALID,1002.92,VALID,0,VALID,95.8738,VALID,0,VALID,22.6282,VALID,149,VALID,0.189063,
2012-08-30, 00:24:05,VALID,1002.91,VALID,0,VALID,95.8662,VALID,0,VALID,22.6282,VALID,149,VALID,0.264453,
2012-08-30, 00:25:05,VALID,1002.9,VALID,0,VALID,95.8738,VALID,0,VALID,22.6264,VALID,149,VALID,0.588672,
2012-08-30, 00:26:05,VALID,1002.9,VALID,0.5,VALID,95.912,VALID,0,VALID,22.6069,VALID,149,VALID,0.541016,
2012-08-30, 00:27:05,VALID,1002.88,VALID,0,VALID,95.912,VALID,0,VALID,22.6264,VALID,149,VALID,0.301562,
2012-08-30, 00:28:05,VALID,1002.87,VALID,0,VALID,95.9043,VALID,0,VALID,22.6264,VALID,149,VALID,0.573047,
2012-08-30, 00:29:05,VALID,1002.85,VALID,0,VALID,95.912,VALID,0.104696,VALID,22.6069,VALID,118,VALID,0.922266,
2012-08-30, 00:30:05,VALID,1002.84,VALID,0,VALID,95.8891,VALID,0,VALID,22.6282,VALID,101,VALID,1.00547,
2012-08-30, 00:31:05,VALID,1002.84,VALID,0,VALID,95.8967,VALID,0,VALID,22.6069,VALID,100,VALID,0.894922,
2012-08-30, 00:32:05,VALID,1002.82,VALID,0,VALID,95.8814,VALID,0,VALID,22.6282,VALID,100,VALID,0.408203,
2012-08-30, 00:33:05,VALID,1002.82,VALID,0,VALID,95.8662,VALID,0.104696,VALID,22.6264,VALID,100,VALID,0.283984,
2012-08-30, 00:34:05,VALID,1002.81,VALID,0,VALID,95.8967,VALID,0,VALID,22.6069,VALID,100,VALID,0.343359,
2012-08-30, 00:35:05,VALID,1002.77,VALID,0,VALID,95.8814,VALID,0,VALID,22.6282,VALID,100,VALID,0.0964844,
2012-08-30, 00:36:05,VALID,1002.79,VALID,0,VALID,95.8662,VALID,0,VALID,22.6087,VALID,100,VALID,0.283203,
2012-08-30, 00:37:05,VALID,1002.78,VALID,0,VALID,95.8967,VALID,0,VALID,22.6087,VALID,100,VALID,0.646094,
2012-08-30, 00:38:05,VALID,1002.79,VALID,0,VALID,95.8738,VALID,0,VALID,22.5679,VALID,66,VALID,1.04258,
2012-08-30, 00:39:05,VALID,1002.79,VALID,0,VALID,95.8662,VALID,0,VALID,22.5696,VALID,32,VALID,1.00195,
2012-08-30, 00:40:05,VALID,1002.8,VALID,0,VALID,95.8585,VALID,0,VALID,22.5892,VALID,24,VALID,1.13945,
2012-08-30, 00:41:05,VALID,1002.8,VALID,0,VALID,95.8433,VALID,0,VALID,22.5696,VALID,24,VALID,0.904297,
2012-08-30, 00:42:05,VALID,1002.76,VALID,0,VALID,95.828,VALID,0.104696,VALID,22.5696,VALID,24,VALID,1.22187,
2012-08-30, 00:43:05,VALID,1002.77,VALID,0,VALID,95.8585,VALID,0,VALID,22.5484,VALID,24,VALID,1.04102,
2012-08-30, 00:44:05,VALID,1002.75,VALID,0,VALID,95.8509,VALID,0,VALID,22.5696,VALID,24,VALID,0.972656,
2012-08-30, 00:45:05,VALID,1002.74,VALID,0,VALID,95.8357,VALID,0,VALID,22.5501,VALID,28,VALID,1.10039,
2012-08-30, 00:46:05,VALID,1002.75,VALID,0,VALID,95.8204,VALID,0,VALID,22.5501,VALID,44,VALID,1.09102,
2012-08-30, 00:47:05,VALID,1002.75,VALID,0,VALID,95.8051,VALID,0,VALID,22.5501,VALID,44,VALID,1.22227,
2012-08-30, 00:48:05,VALID,1002.73,VALID,0,VALID,95.7899,VALID,0,VALID,22.5501,VALID,59,VALID,1.24414,
2012-08-30, 00:49:05,VALID,1002.72,VALID,0,VALID,95.7822,VALID,0,VALID,22.5696,VALID,59,VALID,1.00117,
2012-08-30, 00:50:05,VALID,1002.72,VALID,0,VALID,95.7517,VALID,0,VALID,22.5892,VALID,59,VALID,0.960156,
2012-08-30, 00:51:05,VALID,1002.73,VALID,0,VALID,95.7517,VALID,0,VALID,22.5696,VALID,59,VALID,1.09336,
2012-08-30, 00:52:05,VALID,1002.7,VALID,0,VALID,95.7288,VALID,0,VALID,22.5714,VALID,59,VALID,0.626172,
2012-08-30, 00:53:05,VALID,1002.69,VALID,0,VALID,95.706,VALID,0,VALID,22.5714,VALID,35,VALID,1.17578,
2012-08-30, 00:54:05,VALID,1002.66,VALID,0,VALID,95.6831,VALID,0,VALID,22.5323,VALID,28,VALID,1.08555,
2012-08-30, 00:55:05,VALID,1002.63,VALID,0,VALID,95.6297,VALID,0,VALID,22.5128,VALID,27,VALID,1.12227,
2012-08-30, 00:56:05,VALID,1002.6,VALID,0,VALID,95.622,VALID,0,VALID,22.4933,VALID,27,VALID,1.03477,
2012-08-30, 00:57:05,VALID,1002.55,VALID,0,VALID,95.5686,VALID,0,VALID,22.4738,VALID,27,VALID,0.994531,
2012-08-30, 00:58:05,VALID,1002.5,VALID,0,VALID,95.5762,VALID,0,VALID,22.4331,VALID,27,VALID,1.05195,
2012-08-30, 00:59:05,VALID,1002.51,VALID,0,VALID,95.5839,VALID,0,VALID,22.4543,VALID,27,VALID,0.819922,
2012-08-30, 01:00:05,VALID,1002.48,VALID,0,VALID,95.5686,VALID,0,VALID,22.4331,VALID,27,VALID,0.704687,
2012-08-30, 01:01:05,VALID,1002.46,VALID,0,VALID,95.5991,VALID,0,VALID,22.4331,VALID,27,VALID,1.07969,
2012-08-30, 01:02:05,VALID,1002.43,VALID,0,VALID,95.5762,VALID,0,VALID,22.3941,VALID,27,VALID,1.24297,
2012-08-30, 01:03:05,VALID,1002.44,VALID,0,VALID,95.5839,VALID,0,VALID,22.3941,VALID,27,VALID,0.941797,
2012-08-30, 01:04:05,VALID,1002.43,VALID,0,VALID,95.5991,VALID,0,VALID,22.3941,VALID,27,VALID,0.733203,
2012-08-30, 01:05:05,VALID,1002.44,VALID,0,VALID,95.5991,VALID,0,VALID,22.3958,VALID,27,VALID,0.627734,
2012-08-30, 01:06:05,VALID,1002.42,VALID,0,VALID,95.6144,VALID,0,VALID,22.3958,VALID,27,VALID,0.628906,
2012-08-30, 01:07:05,VALID,1002.47,VALID,0,VALID,95.6144,VALID,0,VALID,22.3551,VALID,27,VALID,0.804688,
2012-08-30, 01:08:05,VALID,1002.44,VALID,0,VALID,95.6144,VALID,0,VALID,22.3568,VALID,28,VALID,1.19414,
2012-08-30, 01:09:05,VALID,1002.42,VALID,0,VALID,95.6373,VALID,0,VALID,22.3356,VALID,36,VALID,1.69258,
2012-08-30, 01:10:05,VALID,1002.43,VALID,0,VALID,95.6373,VALID,0,VALID,22.3551,VALID,36,VALID,1.79141,
2012-08-30, 01:11:05,VALID,1002.45,VALID,0,VALID,95.622,VALID,0,VALID,22.3746,VALID,36,VALID,1.88164,
2012-08-30, 01:12:05,VALID,1002.4,VALID,0,VALID,95.6068,VALID,0,VALID,22.3958,VALID,36,VALID,1.5918,
2012-08-30, 01:13:05,VALID,1002.43,VALID,0,VALID,95.561,VALID,0,VALID,22.3941,VALID,36,VALID,1.33945,
2012-08-30, 01:14:05,VALID,1002.39,VALID,0,VALID,95.5534,VALID,0,VALID,22.4153,VALID,36,VALID,1.03359,
2012-08-30, 01:15:05,VALID,1002.37,VALID,0,VALID,95.561,VALID,0,VALID,22.3958,VALID,36,VALID,0.884766,
2012-08-30, 01:16:05,VALID,1002.34,VALID,0,VALID,95.5762,VALID,0,VALID,22.3958,VALID,36,VALID,1.05703,
2012-08-30, 01:17:05,VALID,1002.29,VALID,0,VALID,95.5457,VALID,0,VALID,22.3356,VALID,36,VALID,1.07578,
2012-08-30, 01:18:05,VALID,1002.3,VALID,0,VALID,95.5076,VALID,0,VALID,22.3568,VALID,36,VALID,0.853906,
2012-08-30, 01:19:05,VALID,1002.33,VALID,0,VALID,95.5305,VALID,0,VALID,22.3763,VALID,36,VALID,0.81875,
2012-08-30, 01:20:05,VALID,1002.28,VALID,0,VALID,95.5457,VALID,0,VALID,22.3746,VALID,36,VALID,0.615234,
2012-08-30, 01:21:05,VALID,1002.28,VALID,0,VALID,95.5839,VALID,0,VALID,22.3746,VALID,36,VALID,0.609766,
2012-08-30, 01:22:05,VALID,1002.28,VALID,0,VALID,95.5839,VALID,0,VALID,22.3356,VALID,36,VALID,0.6125,
2012-08-30, 01:23:05,VALID,1002.29,VALID,0,VALID,95.561,VALID,0,VALID,22.3568,VALID,36,VALID,0.262109,
2012-08-30, 01:24:05,VALID,1002.27,VALID,0,VALID,95.5991,VALID,0,VALID,22.3373,VALID,36,VALID,0.526953,
2012-08-30, 01:25:05,VALID,1002.29,VALID,0,VALID,95.6068,VALID,0,VALID,22.3373,VALID,36,VALID,0.501172,
2012-08-30, 01:26:05,VALID,1002.27,VALID,0,VALID,95.5839,VALID,0,VALID,22.3178,VALID,36,VALID,0.576172,
2012-08-30, 01:27:05,VALID,1002.26,VALID,0,VALID,95.5686,VALID,0,VALID,22.2983,VALID,36,VALID,0.497266,
2012-08-30, 01:28:05,VALID,1002.26,VALID,0,VALID,95.5762,VALID,0,VALID,22.2983,VALID,36,VALID,0.408203,
2012-08-30, 01:29:05,VALID,1002.23,VALID,0,VALID,95.5457,VALID,0,VALID,22.2788,VALID,36,VALID,0.421484,
2012-08-30, 01:30:05,VALID,1002.22,VALID,0,VALID,95.561,VALID,0,VALID,22.2592,VALID,36,VALID,0.373047,
2012-08-30, 01:31:05,VALID,1002.18,VALID,0,VALID,95.5839,VALID,0,VALID,22.2788,VALID,36,VALID,0.604688,
2012-08-30, 01:32:05,VALID,1002.18,VALID,0,VALID,95.5839,VALID,0,VALID,22.2592,VALID,36,VALID,0.408594,
2012-08-30, 01:33:05,VALID,1002.17,VALID,0,VALID,95.6144,VALID,0,VALID,22.2592,VALID,36,VALID,0.230859,
2012-08-30, 01:34:05,VALID,1002.19,VALID,0,VALID,95.6144,VALID,0,VALID,22.2592,VALID,36,VALID,0,
2012-08-30, 01:35:05,VALID,1002.15,VALID,0,VALID,95.622,VALID,0,VALID,22.2397,VALID,36,VALID,0,
2012-08-30, 01:36:05,VALID,1002.16,VALID,0,VALID,95.6525,VALID,0,VALID,22.2397,VALID,36,VALID,0.0285156,
2012-08-30, 01:37:05,VALID,1002.15,VALID,0,VALID,95.6983,VALID,0,VALID,22.2381,VALID,36,VALID,0.278906,
2012-08-30, 01:38:05,VALID,1002.11,VALID,0,VALID,95.7212,VALID,0,VALID,22.2576,VALID,36,VALID,0.491406,
2012-08-30, 01:39:05,VALID,1002.09,VALID,0,VALID,95.7517,VALID,0,VALID,22.2771,VALID,36,VALID,0.683594,
2012-08-30, 01:40:05,VALID,1002.11,VALID,0,VALID,95.7822,VALID,0,VALID,22.2771,VALID,36,VALID,0.656641,
2012-08-30, 01:41:05,VALID,1002.07,VALID,0,VALID,95.8051,VALID,0,VALID,22.2559,VALID,36,VALID,0.7375,
2012-08-30, 01:42:05,VALID,1002.02,VALID,0,VALID,95.8051,VALID,0,VALID,22.3161,VALID,36,VALID,0.957031,
2012-08-30, 01:43:05,VALID,1002.02,VALID,0,VALID,95.8509,VALID,0,VALID,22.3161,VALID,36,VALID,1.11602,
2012-08-30, 01:44:05,VALID,1002,VALID,0,VALID,95.8509,VALID,0,VALID,22.3161,VALID,36,VALID,1.01055,
2012-08-30, 01:45:05,VALID,1002,VALID,0,VALID,95.8738,VALID,0,VALID,22.3161,VALID,36,VALID,0.993359,
2012-08-30, 01:46:05,VALID,1001.96,VALID,0,VALID,95.8509,VALID,0,VALID,22.3161,VALID,36,VALID,1.10352,
2012-08-30, 01:47:05,VALID,1001.91,VALID,0,VALID,95.8814,VALID,0,VALID,22.3161,VALID,37,VALID,0.985937,
2012-08-30, 01:48:05,VALID,1001.94,VALID,0,VALID,95.8891,VALID,0,VALID,22.2949,VALID,67,VALID,0.933594,
2012-08-30, 01:49:05,VALID,1001.9,VALID,0,VALID,95.8891,VALID,0,VALID,22.3356,VALID,86,VALID,1.39648,
2012-08-30, 01:50:05,VALID,1001.9,VALID,0,VALID,95.9348,VALID,0,VALID,22.3356,VALID,86,VALID,1.10586,
2012-08-30, 01:51:05,VALID,1001.89,VALID,0,VALID,95.9043,VALID,0,VALID,22.3356,VALID,87,VALID,0.980859,
2012-08-30, 01:52:05,VALID,1001.86,VALID,0,VALID,95.9196,VALID,0,VALID,22.2983,VALID,87,VALID,0.905469,
2012-08-30, 01:53:05,VALID,1001.88,VALID,0,VALID,95.9425,VALID,0,VALID,22.2788,VALID,88,VALID,0.914063,
2012-08-30, 01:54:05,VALID,1001.83,VALID,0,VALID,95.9348,VALID,0,VALID,22.2788,VALID,88,VALID,0.634766,
2012-08-30, 01:55:05,VALID,1001.82,VALID,0,VALID,95.9577,VALID,0,VALID,22.2592,VALID,96,VALID,1.08633,
2012-08-30, 01:56:05,VALID,1001.8,VALID,0,VALID,95.9654,VALID,0,VALID,22.2397,VALID,107,VALID,0.702734,
2012-08-30, 01:57:05,VALID,1001.77,VALID,0,VALID,95.9348,VALID,0,VALID,22.2592,VALID,107,VALID,0.874609,
2012-08-30, 01:58:05,VALID,1001.78,VALID,0,VALID,95.973,VALID,0,VALID,22.2788,VALID,82,VALID,1.01055,
2012-08-30, 01:59:05,VALID,1001.77,VALID,0,VALID,95.9577,VALID,0,VALID,22.2592,VALID,62,VALID,0.957422,
2012-08-30, 02:00:05,VALID,1001.77,VALID,0,VALID,95.9501,VALID,0,VALID,22.2592,VALID,61,VALID,0.946094,
2012-08-30, 02:01:05,VALID,1001.73,VALID,0,VALID,95.9501,VALID,0,VALID,22.2381,VALID,61,VALID,1.16289,
2012-08-30, 02:02:05,VALID,1001.7,VALID,0,VALID,95.9425,VALID,0,VALID,22.2381,VALID,61,VALID,0.959375,
2012-08-30, 02:03:05,VALID,1001.7,VALID,0,VALID,95.9043,VALID,0,VALID,22.2397,VALID,61,VALID,0.623828,
2012-08-30, 02:04:05,VALID,1001.69,VALID,0,VALID,95.912,VALID,0,VALID,22.2576,VALID,61,VALID,0.297656,
2012-08-30, 02:05:05,VALID,1001.66,VALID,0,VALID,95.8814,VALID,0,VALID,22.2788,VALID,61,VALID,0.239453,
2012-08-30, 02:06:05,VALID,1001.66,VALID,0,VALID,95.8738,VALID,0,VALID,22.2788,VALID,61,VALID,0.557813,
2012-08-30, 02:07:05,VALID,1001.68,VALID,0,VALID,95.8662,VALID,0,VALID,22.2592,VALID,65,VALID,0.516406,
2012-08-30, 02:08:05,VALID,1001.68,VALID,0,VALID,95.8585,VALID,0,VALID,22.2983,VALID,90,VALID,0.770312,
2012-08-30, 02:09:05,VALID,1001.7,VALID,0,VALID,95.8204,VALID,0,VALID,22.2983,VALID,90,VALID,0.539063,
2012-08-30, 02:10:05,VALID,1001.7,VALID,0,VALID,95.8128,VALID,0,VALID,22.2983,VALID,90,VALID,0.487109,
2012-08-30, 02:11:05,VALID,1001.71,VALID,0,VALID,95.7746,VALID,0,VALID,22.2983,VALID,90,VALID,0.589453,
2012-08-30, 02:12:05,VALID,1001.72,VALID,0,VALID,95.767,VALID,0,VALID,22.2983,VALID,90,VALID,0.638281,
2012-08-30, 02:13:05,VALID,1001.73,VALID,0,VALID,95.706,VALID,0,VALID,22.2983,VALID,75,VALID,0.824609,
2012-08-30, 02:14:05,VALID,1001.76,VALID,0,VALID,95.6831,VALID,0,VALID,22.3178,VALID,65,VALID,0.213672,
2012-08-30, 02:15:05,VALID,1001.78,VALID,0,VALID,95.6525,VALID,0,VALID,22.3178,VALID,65,VALID,0.229687,
2012-08-30, 02:16:05,VALID,1001.76,VALID,0,VALID,95.6297,VALID,0,VALID,22.3178,VALID,65,VALID,0.131641,
2012-08-30, 02:17:05,VALID,1001.75,VALID,0,VALID,95.6373,VALID,0,VALID,22.2966,VALID,65,VALID,0.396094,
2012-08-30, 02:18:05,VALID,1001.78,VALID,0,VALID,95.5991,VALID,0,VALID,22.3178,VALID,65,VALID,0.419531,
2012-08-30, 02:19:05,VALID,1001.79,VALID,0,VALID,95.5915,VALID,0,VALID,22.3178,VALID,65,VALID,0.281641,
2012-08-30, 02:20:05,VALID,1001.79,VALID,0,VALID,95.6144,VALID,0,VALID,22.3178,VALID,65,VALID,0.267578,
2012-08-30, 02:21:05,VALID,1001.8,VALID,0,VALID,95.6373,VALID,0,VALID,22.2983,VALID,65,VALID,0.0550781,
2012-08-30, 02:22:05,VALID,1001.8,VALID,0,VALID,95.6449,VALID,0,VALID,22.3161,VALID,65,VALID,0,
2012-08-30, 02:23:05,VALID,1001.81,VALID,0,VALID,95.6678,VALID,0,VALID,22.2949,VALID,65,VALID,0,
2012-08-30, 02:24:05,VALID,1001.8,VALID,0,VALID,95.6754,VALID,0,VALID,22.2966,VALID,65,VALID,0,
2012-08-30, 02:25:05,VALID,1001.75,VALID,0,VALID,95.6831,VALID,0,VALID,22.2966,VALID,65,VALID,0.210547,
2012-08-30, 02:26:05,VALID,1001.78,VALID,0,VALID,95.6907,VALID,0,VALID,22.2966,VALID,65,VALID,0,
2012-08-30, 02:27:05,VALID,1001.78,VALID,0,VALID,95.6907,VALID,0,VALID,22.2966,VALID,65,VALID,0,
2012-08-30, 02:28:05,VALID,1001.77,VALID,0,VALID,95.6831,VALID,0,VALID,22.2754,VALID,65,VALID,0.0492188,
2012-08-30, 02:29:05,VALID,1001.74,VALID,0,VALID,95.6831,VALID,0,VALID,22.2966,VALID,65,VALID,0.0210938,
2012-08-30, 02:30:05,VALID,1001.77,VALID,0,VALID,95.6907,VALID,0,VALID,22.2754,VALID,65,VALID,0.534766,
2012-08-30, 02:31:05,VALID,1001.76,VALID,0,VALID,95.7365,VALID,0,VALID,22.3161,VALID,65,VALID,0.586328,
2012-08-30, 02:32:05,VALID,1001.79,VALID,0,VALID,95.7365,VALID,0,VALID,22.3144,VALID,65,VALID,0.260156,
2012-08-30, 02:33:05,VALID,1001.75,VALID,0,VALID,95.7288,VALID,0,VALID,22.3356,VALID,65,VALID,0,
2012-08-30, 02:34:05,VALID,1001.75,VALID,0,VALID,95.7365,VALID,0,VALID,22.3356,VALID,65,VALID,0.00117188,
2012-08-30, 02:35:05,VALID,1001.8,VALID,0,VALID,95.7288,VALID,0,VALID,22.3356,VALID,65,VALID,0,
2012-08-30, 02:36:04,VALID,1001.79,VALID,0,VALID,95.7746,VALID,0,VALID,22.3551,VALID,65,VALID,0.310547,
2012-08-30, 02:37:04,VALID,1001.77,VALID,0,VALID,95.767,VALID,0,VALID,22.3551,VALID,65,VALID,0,
2012-08-30, 02:38:04,VALID,1001.76,VALID,0,VALID,95.7594,VALID,0,VALID,22.3356,VALID,65,VALID,0,
2012-08-30, 02:39:04,VALID,1001.78,VALID,0,VALID,95.7746,VALID,0,VALID,22.3356,VALID,65,VALID,0.5125,
2012-08-30, 02:40:04,VALID,1001.74,VALID,0,VALID,95.7594,VALID,0,VALID,22.3161,VALID,63,VALID,0.949219,
2012-08-30, 02:41:04,VALID,1001.78,VALID,0,VALID,95.767,VALID,0,VALID,22.2949,VALID,58,VALID,0.826172,
2012-08-30, 02:42:04,VALID,1001.79,VALID,0,VALID,95.7899,VALID,0,VALID,22.2966,VALID,58,VALID,0.775,
2012-08-30, 02:43:04,VALID,1001.75,VALID,0,VALID,95.767,VALID,0,VALID,22.2771,VALID,58,VALID,0.966406,
2012-08-30, 02:44:04,VALID,1001.75,VALID,0,VALID,95.7822,VALID,0,VALID,22.2771,VALID,58,VALID,0.876172,
2012-08-30, 02:45:04,VALID,1001.78,VALID,0,VALID,95.7441,VALID,0,VALID,22.2576,VALID,58,VALID,0.784766,
2012-08-30, 02:46:04,VALID,1001.79,VALID,0,VALID,95.767,VALID,0,VALID,22.2576,VALID,58,VALID,0.624609,
2012-08-30, 02:47:04,VALID,1001.79,VALID,0,VALID,95.7594,VALID,0,VALID,22.2559,VALID,58,VALID,0.210938,
2012-08-30, 02:48:04,VALID,1001.79,VALID,0,VALID,95.7594,VALID,0,VALID,22.2771,VALID,58,VALID,0.0714844,
2012-08-30, 02:49:04,VALID,1001.77,VALID,0,VALID,95.7441,VALID,0,VALID,22.2949,VALID,58,VALID,0.178125,
2012-08-30, 02:50:04,VALID,1001.78,VALID,0,VALID,95.7822,VALID,0,VALID,22.3161,VALID,58,VALID,0,
2012-08-30, 02:51:04,VALID,1001.77,VALID,0,VALID,95.7822,VALID,0,VALID,22.2949,VALID,58,VALID,0,
2012-08-30, 02:52:04,VALID,1001.78,VALID,0,VALID,95.7899,VALID,0,VALID,22.3356,VALID,58,VALID,0,
2012-08-30, 02:53:04,VALID,1001.8,VALID,0,VALID,95.7822,VALID,0.104696,VALID,22.3356,VALID,59,VALID,0,
2012-08-30, 02:54:04,VALID,1001.82,VALID,0,VALID,95.7975,VALID,0,VALID,22.3356,VALID,59,VALID,0,
2012-08-30, 02:55:04,VALID,1001.81,VALID,0,VALID,95.8128,VALID,0,VALID,22.3746,VALID,59,VALID,0,
2012-08-30, 02:56:04,VALID,1001.83,VALID,0,VALID,95.7975,VALID,0,VALID,22.3551,VALID,88,VALID,0.719922,
2012-08-30, 02:57:04,VALID,1001.87,VALID,0,VALID,95.767,VALID,0,VALID,22.3551,VALID,88,VALID,0.136719,
2012-08-30, 02:58:04,VALID,1001.87,VALID,0,VALID,95.7517,VALID,0,VALID,22.3551,VALID,88,VALID,0.00273437,
2012-08-30, 02:59:04,VALID,1001.87,VALID,0,VALID,95.7136,VALID,0,VALID,22.3356,VALID,88,VALID,0,
2012-08-30, 03:00:04,VALID,1001.88,VALID,0,VALID,95.6831,VALID,0,VALID,22.3356,VALID,88,VALID,0,
2012-08-30, 03:01:04,VALID,1001.87,VALID,0,VALID,95.6144,VALID,0,VALID,22.3551,VALID,88,VALID,0.0195313,
2012-08-30, 03:02:04,VALID,1001.9,VALID,0,VALID,95.5534,VALID,0,VALID,22.3551,VALID,88,VALID,0,
2012-08-30, 03:03:04,VALID,1001.89,VALID,0,VALID,95.5076,VALID,0,VALID,22.3746,VALID,88,VALID,0,
2012-08-30, 03:04:04,VALID,1001.88,VALID,0,VALID,95.4465,VALID,0,VALID,22.3729,VALID,88,VALID,0,
2012-08-30, 03:05:04,VALID,1001.89,VALID,0,VALID,95.416,VALID,0,VALID,22.4136,VALID,88,VALID,0,
2012-08-30, 03:06:04,VALID,1001.87,VALID,0,VALID,95.3168,VALID,0,VALID,22.4136,VALID,88,VALID,0,
2012-08-30, 03:07:04,VALID,1001.83,VALID,0,VALID,95.2329,VALID,0,VALID,22.4136,VALID,88,VALID,0,
2012-08-30, 03:08:04,VALID,1001.81,VALID,0,VALID,95.0956,VALID,0,VALID,22.4136,VALID,88,VALID,0,
2012-08-30, 03:09:04,VALID,1001.8,VALID,0,VALID,94.9125,VALID,0,VALID,22.4119,VALID,88,VALID,0,
2012-08-30, 03:10:04,VALID,1001.8,VALID,0,VALID,94.8057,VALID,0,VALID,22.4509,VALID,88,VALID,0,
2012-08-30, 03:11:04,VALID,1001.8,VALID,0,VALID,94.6226,VALID,0,VALID,22.4721,VALID,90,VALID,0,
2012-08-30, 03:12:04,VALID,1001.79,VALID,0,VALID,94.4928,VALID,0,VALID,22.4721,VALID,90,VALID,0,
2012-08-30, 03:13:04,VALID,1001.75,VALID,0,VALID,94.4471,VALID,0,VALID,22.4916,VALID,90,VALID,0,
2012-08-30, 03:14:04,VALID,1001.76,VALID,0,VALID,94.4471,VALID,0,VALID,22.5111,VALID,90,VALID,0,
2012-08-30, 03:15:04,VALID,1001.78,VALID,0,VALID,94.4623,VALID,0,VALID,22.5111,VALID,90,VALID,0,
2012-08-30, 03:16:04,VALID,1001.8,VALID,0,VALID,94.325,VALID,0,VALID,22.5111,VALID,90,VALID,0,
2012-08-30, 03:17:04,VALID,1001.78,VALID,0,VALID,94.3021,VALID,0,VALID,22.5306,VALID,90,VALID,0,
2012-08-30, 03:18:04,VALID,1001.8,VALID,0,VALID,94.3097,VALID,0,VALID,22.5306,VALID,90,VALID,0.526172,
2012-08-30, 03:19:04,VALID,1001.8,VALID,0,VALID,94.325,VALID,0,VALID,22.5501,VALID,90,VALID,0.557813,
2012-08-30, 03:20:04,VALID,1001.77,VALID,0,VALID,94.3326,VALID,0,VALID,22.5484,VALID,90,VALID,0.555469,
2012-08-30, 03:21:04,VALID,1001.79,VALID,0,VALID,94.3784,VALID,0,VALID,22.5696,VALID,90,VALID,0.478516,
2012-08-30, 03:22:04,VALID,1001.8,VALID,0,VALID,94.4165,VALID,0,VALID,22.5501,VALID,90,VALID,0.585156,
2012-08-30, 03:23:04,VALID,1001.8,VALID,0,VALID,94.4623,VALID,0,VALID,22.5484,VALID,90,VALID,0.400391,
2012-08-30, 03:24:04,VALID,1001.79,VALID,0,VALID,94.5157,VALID,0,VALID,22.5501,VALID,90,VALID,0.564453,
2012-08-30, 03:25:04,VALID,1001.8,VALID,0,VALID,94.5768,VALID,0,VALID,22.5289,VALID,90,VALID,0.655469,
2012-08-30, 03:26:04,VALID,1001.78,VALID,0,VALID,94.6302,VALID,0,VALID,22.5501,VALID,90,VALID,0.762109,
2012-08-30, 03:27:04,VALID,1001.78,VALID,0,VALID,94.6988,VALID,0,VALID,22.5501,VALID,90,VALID,0.915234,
2012-08-30, 03:28:04,VALID,1001.75,VALID,0,VALID,94.7599,VALID,0,VALID,22.5501,VALID,121,VALID,1.13633,
2012-08-30, 03:29:04,VALID,1001.74,VALID,0,VALID,94.8362,VALID,0,VALID,22.5501,VALID,121,VALID,1.17695,
2012-08-30, 03:30:04,VALID,1001.75,VALID,0,VALID,94.8438,VALID,0,VALID,22.5501,VALID,121,VALID,1.04375,
2012-08-30, 03:31:04,VALID,1001.72,VALID,0,VALID,94.8438,VALID,0,VALID,22.5696,VALID,121,VALID,0.913281,
2012-08-30, 03:32:04,VALID,1001.74,VALID,0,VALID,94.8743,VALID,0,VALID,22.5501,VALID,121,VALID,0.701563,
2012-08-30, 03:33:04,VALID,1001.72,VALID,0,VALID,94.9125,VALID,0,VALID,22.5501,VALID,121,VALID,0.604688,
2012-08-30, 03:34:04,VALID,1001.69,VALID,0,VALID,94.943,VALID,0,VALID,22.5501,VALID,121,VALID,0.282422,
2012-08-30, 03:35:04,VALID,1001.68,VALID,0,VALID,94.9811,VALID,0,VALID,22.5501,VALID,121,VALID,0.205078,
2012-08-30, 03:36:04,VALID,1001.68,VALID,0,VALID,95.0269,VALID,0,VALID,22.5696,VALID,121,VALID,0.0710938,
2012-08-30, 03:37:04,VALID,1001.7,VALID,0,VALID,95.0498,VALID,0,VALID,22.5501,VALID,121,VALID,0.394922,
2012-08-30, 03:38:04,VALID,1001.68,VALID,0,VALID,95.0498,VALID,0,VALID,22.5501,VALID,121,VALID,0.438672,
2012-08-30, 03:39:04,VALID,1001.66,VALID,0,VALID,95.0651,VALID,0,VALID,22.5501,VALID,121,VALID,0.473047,
2012-08-30, 03:40:04,VALID,1001.71,VALID,0,VALID,95.0498,VALID,0,VALID,22.5501,VALID,121,VALID,0.391016,
2012-08-30, 03:41:04,VALID,1001.68,VALID,0,VALID,95.0345,VALID,0,VALID,22.5289,VALID,121,VALID,0.521094,
2012-08-30, 03:42:04,VALID,1001.68,VALID,0,VALID,95.0269,VALID,0,VALID,22.5696,VALID,121,VALID,0.372266,
2012-08-30, 03:43:04,VALID,1001.69,VALID,0,VALID,95.0651,VALID,0,VALID,22.5696,VALID,121,VALID,0.369922,
2012-08-30, 03:44:04,VALID,1001.68,VALID,0,VALID,95.0422,VALID,0,VALID,22.5289,VALID,121,VALID,0.433594,
2012-08-30, 03:45:04,VALID,1001.69,VALID,0,VALID,95.0345,VALID,0,VALID,22.5501,VALID,121,VALID,0.419922,
2012-08-30, 03:46:04,VALID,1001.68,VALID,0,VALID,95.0651,VALID,0,VALID,22.5289,VALID,121,VALID,0.333203,
2012-08-30, 03:47:04,VALID,1001.68,VALID,0,VALID,95.0727,VALID,0,VALID,22.5501,VALID,121,VALID,0.398047,